Kivalina, AK

5:22 AM AKDT on October 17, 2017 (GMT -0800)
Kivalina

Weather History for PAVL - October, 2013

Change the Weather History Date:

Tuesday, October 8, 2013

  Actual Average (PAWN) Record (PAWN)
Temperature  
Mean Temperature 34 °F -  
Max Temperature 37 °F 28 °F 62 °F (2007)
Min Temperature 32 °F 18 °F 0 °F (2000)
Degree Days  
Heating Degree Days 30    
Moisture  
Dew Point 32 °F    
Average Humidity 87    
Maximum Humidity 96    
Minimum Humidity 78    
Precipitation  
Precipitation 0.05 in - - ()
Sea Level Pressure  
Sea Level Pressure 29.15 in    
Wind  
Wind Speed 13 mph (NNE)    
Max Wind Speed 17 mph    
Max Gust Speed -    
Visibility 9 miles    
Events Rain , Snow    
Averages and records for this station are not official NWS values.
T = Trace of Precipitation, MM = Missing Value Source: NWS Daily Summary

Daily Weather History Graph

Daily Weather History Graph

Search for Another Location

Airport or City:

Trip Planner

Search our weather history database for the weather conditions in past years. The results will help you decide how hot, cold, wet, or windy it might be!

Date:

Astronomy

Oct. 08, 2013 Rise Set
Actual Time 9:37 AM AKDT 7:52 PM AKDT
Civil Twilight 8:42 AM AKDT 8:47 PM AKDT
Nautical Twilight 7:38 AM AKDT 9:50 PM AKDT
Astronomical Twilight 6:29 AM AKDT 10:58 PM AKDT
Moon 3:58 PM AKDT (10/8) 8:25 PM AKDT (10/8)
Length of Visible Light 12h 05m
Length of Day
10h 14m
Waxing Crescent, 17% of the Moon is Illuminated
Oct 8
Waxing Crescent
Oct 11
First Quarter
Oct 18
Full
Oct 26
Last Quarter
Nov 3
New

Hourly Weather History & Observations

Time (AKDT) Temp. Windchill Dew Point Humidity Pressure Visibility Wind Dir Wind Speed Gust Speed Precip Events Conditions
12:27 AM 35.6 °F 26.6 °F 33.8 °F 93% 29.49 in 10.0 mi ENE 13.8 mph - N/A   Overcast
12:53 AM 35.1 °F 25.9 °F 33.1 °F 92% 29.48 in 10.0 mi ENE 13.8 mph - N/A   Overcast
1:04 AM 35.6 °F 27.5 °F 33.8 °F 93% 29.47 in 10.0 mi ENE 11.5 mph - N/A   Overcast
1:16 AM 35.6 °F 27.1 °F 33.8 °F 93% 29.47 in 10.0 mi ENE 12.7 mph - N/A   Overcast
1:53 AM 36.0 °F 27.5 °F 33.1 °F 89% 29.45 in 10.0 mi ENE 12.7 mph - N/A   Overcast
2:12 AM 35.6 °F 26.6 °F 33.8 °F 93% 29.43 in 10.0 mi ENE 13.8 mph - N/A   Overcast
2:53 AM 36.0 °F 26.7 °F 32.0 °F 86% 29.41 in 10.0 mi ENE 15.0 mph - N/A   Overcast
3:30 AM 35.6 °F 26.2 °F 30.2 °F 81% 29.38 in 10.0 mi ENE 15.0 mph - N/A   Mostly Cloudy
3:53 AM 35.1 °F 24.8 °F 30.9 °F 85% 29.37 in 10.0 mi ENE 17.3 mph - N/A   Mostly Cloudy
4:53 AM 36.0 °F 26.3 °F 30.9 °F 82% 29.33 in 10.0 mi NE 16.1 mph - N/A   Mostly Cloudy
5:53 AM 35.1 °F 26.4 °F 30.0 °F 82% 29.29 in 10.0 mi NNE 12.7 mph - N/A   Partly Cloudy
6:53 AM 34.0 °F 24.6 °F 30.0 °F 85% 29.25 in 10.0 mi NNE 13.8 mph - N/A   Mostly Cloudy
7:53 AM 35.1 °F 25.9 °F 30.0 °F 82% 29.21 in 10.0 mi NNE 13.8 mph - N/A   Overcast
8:53 AM 35.1 °F 25.5 °F 30.0 °F 82% 29.16 in 10.0 mi NNE 15.0 mph - N/A   Overcast
9:53 AM 35.1 °F 25.2 °F 28.9 °F 78% 29.12 in 10.0 mi NNE 16.1 mph - 0.00 in   Overcast
10:53 AM 35.1 °F 26.9 °F 30.0 °F 82% 29.09 in 10.0 mi NNE 11.5 mph - N/A   Overcast
11:53 AM 36.0 °F 28.0 °F 30.0 °F 79% 29.07 in 10.0 mi NNE 11.5 mph - 0.00 in   Overcast
12:31 PM 35.6 °F 27.5 °F 30.2 °F 81% 29.05 in 9.0 mi North 11.5 mph - 0.00 in Rain Light Rain
12:53 PM 36.0 °F 27.5 °F 30.9 °F 82% 29.05 in 8.0 mi NNE 12.7 mph - 0.00 in Rain Light Rain
1:33 PM 35.6 °F 27.5 °F 33.8 °F 93% 29.03 in 9.0 mi North 11.5 mph - 0.00 in Rain Light Rain
1:48 PM 35.6 °F 27.1 °F 33.8 °F 93% 29.02 in 6.0 mi NNE 12.7 mph - 0.01 in Rain Light Rain
1:53 PM 37.0 °F 28.9 °F 34.0 °F 89% 29.02 in 5.0 mi NNE 12.7 mph - 0.01 in Rain Light Rain
2:08 PM 37.4 °F 28.5 °F 33.8 °F 87% 29.01 in 5.0 mi NNE 15.0 mph - 0.00 in Rain Light Rain
2:29 PM 37.4 °F 28.5 °F 33.8 °F 87% 29.00 in 9.0 mi NNE 15.0 mph - 0.00 in Rain Light Rain
2:53 PM 37.9 °F 30.0 °F 34.0 °F 86% 28.99 in 8.0 mi NNE 12.7 mph - 0.00 in Rain Light Rain
3:53 PM 37.9 °F 29.6 °F 34.0 °F 86% 28.98 in 6.0 mi NE 13.8 mph - 0.00 in Rain Light Rain
4:53 PM 37.9 °F 30.5 °F 35.1 °F 89% 28.97 in 7.0 mi NE 11.5 mph - 0.00 in Rain Light Rain
5:53 PM 37.0 °F 28.9 °F 34.0 °F 89% 28.98 in 7.0 mi NNE 12.7 mph - 0.01 in Rain Light Rain
6:35 PM 35.6 °F 28.0 °F 32.0 °F 87% 28.98 in 9.0 mi North 10.4 mph - 0.01 in Rain Light Rain
6:53 PM 34.0 °F 26.6 °F 32.0 °F 92% 28.98 in 9.0 mi North 9.2 mph - 0.01 in Rain Light Rain
7:53 PM 34.0 °F 25.5 °F 30.9 °F 89% 28.99 in 6.0 mi NNW 11.5 mph - 0.01 in Snow Light Snow
8:53 PM 33.1 °F 26.1 °F 30.9 °F 92% 29.00 in 10.0 mi North 8.1 mph - 0.00 in Rain Light Rain
9:53 PM 32.0 °F 25.6 °F 30.0 °F 92% 29.01 in 5.0 mi North 6.9 mph - 0.00 in Snow Light Snow
10:21 PM 33.8 °F 27.7 °F 30.2 °F 87% 29.02 in 7.0 mi North 6.9 mph - 0.00 in Rain Light Freezing Rain
10:35 PM 33.8 °F 28.6 °F 30.2 °F 87% 29.02 in 7.0 mi North 5.8 mph - 0.00 in Rain Light Freezing Rain
10:44 PM 33.8 °F 29.6 °F 30.2 °F 87% 29.02 in 7.0 mi North 4.6 mph - 0.00 in Rain Light Rain
10:53 PM 33.1 °F 30.0 °F 30.9 °F 92% 29.03 in 8.0 mi NNW 3.5 mph - 0.01 in Rain Light Rain
11:53 PM 33.1 °F 28.7 °F 32.0 °F 96% 29.04 in 8.0 mi NW 4.6 mph - 0.00 in   Overcast